| time (UTC) | temp F | wind direction | speed MPH | gust MPH | rain 1hr in | rain 24hr in | rain mn in | humidity % | barometer mb |
| 20260505013924 | 57 | 239 | 0.0 | 3.0 | 0.00 | 0.00 | 0.00 | 68 | 1009.5 |
| 20260505013024 | 58 | 239 | 1.0 | 3.0 | 0.00 | 0.00 | 0.00 | 66 | 1009.5 |
| 20260505011224 | 59 | 236 | 0.0 | 2.0 | 0.00 | 0.00 | 0.00 | 64 | 1009.2 |
| 20260505010324 | 59 | 234 | 1.0 | 4.0 | 0.00 | 0.00 | 0.00 | 62 | 1009.0 |
| 20260505004524 | 60 | 252 | 2.0 | 6.0 | 0.00 | 0.00 | 0.00 | 61 | 1008.7 |
| 20260505002724 | 60 | 253 | 2.0 | 4.0 | 0.00 | 0.00 | 0.00 | 60 | 1008.2 |
| 20260505001824 | 61 | 246 | 2.0 | 5.0 | 0.00 | 0.00 | 0.00 | 59 | 1008.0 |
| 20260505000924 | 61 | 248 | 2.0 | 6.0 | 0.00 | 0.00 | 0.00 | 59 | 1007.8 |
| 20260505000024 | 62 | 244 | 2.0 | 5.0 | 0.00 | 0.00 | 0.00 | 58 | 1007.6 |
| 20260504235124 | 62 | 245 | 2.0 | 6.0 | 0.00 | 0.00 | 0.00 | 58 | 1007.4 |
| 20260504234224 | 62 | 235 | 2.0 | 6.0 | 0.00 | 0.00 | 0.00 | 57 | 1007.3 |
| 20260504233324 | 63 | 239 | 2.0 | 5.0 | 0.00 | 0.00 | 0.00 | 56 | 1007.2 |
| 20260504232424 | 63 | 252 | 2.0 | 5.0 | 0.00 | 0.00 | 0.00 | 56 | 1007.0 |
| 20260504231524 | 64 | 263 | 3.0 | 7.0 | 0.00 | 0.00 | 0.00 | 55 | 1007.0 |
| 20260504230624 | 64 | 254 | 3.0 | 7.0 | 0.00 | 0.00 | 0.00 | 55 | 1006.8 |
| 20260504225724 | 65 | 244 | 2.0 | 9.0 | 0.00 | 0.00 | 0.00 | 55 | 1006.7 |
| 20260504224824 | 65 | 250 | 2.0 | 5.0 | 0.00 | 0.00 | 0.00 | 54 | 1006.5 |
| 20260504223924 | 66 | 247 | 3.0 | 8.0 | 0.00 | 0.00 | 0.00 | 54 | 1006.5 |
| 20260504223024 | 66 | 259 | 4.0 | 9.0 | 0.00 | 0.00 | 0.00 | 53 | 1006.3 |
| 20260504222124 | 67 | 250 | 2.0 | 7.0 | 0.00 | 0.00 | 0.00 | 51 | 1006.3 |
| 20260504221224 | 67 | 247 | 3.0 | 9.0 | 0.00 | 0.00 | 0.00 | 50 | 1006.2 |
| 20260504220324 | 68 | 250 | 2.0 | 7.0 | 0.00 | 0.00 | 0.00 | 49 | 1006.2 |
| 20260504215424 | 68 | 254 | 2.0 | 7.0 | 0.00 | 0.00 | 0.00 | 48 | 1006.2 |
| 20260504214524 | 68 | 256 | 3.0 | 9.0 | 0.00 | 0.00 | 0.00 | 47 | 1006.1 |
| 20260504211824 | 70 | 243 | 2.0 | 7.0 | 0.00 | 0.00 | 0.00 | 44 | 1005.9 |
| 20260504210924 | 71 | 263 | 2.0 | 7.0 | 0.00 | 0.00 | 0.00 | 43 | 1005.8 |
| 20260504210024 | 71 | 251 | 3.0 | 7.0 | 0.00 | 0.00 | 0.00 | 41 | 1005.8 |
| 20260504205124 | 72 | 275 | 4.0 | 8.0 | 0.00 | 0.00 | 0.00 | 40 | 1005.7 |
| 20260504204224 | 72 | 258 | 2.0 | 8.0 | 0.00 | 0.00 | 0.00 | 40 | 1005.8 |
| 20260504203324 | 73 | 245 | 2.0 | 8.0 | 0.00 | 0.00 | 0.00 | 39 | 1005.8 |
| 20260504202424 | 73 | 272 | 3.0 | 8.0 | 0.00 | 0.00 | 0.00 | 39 | 1005.9 |
| 20260504201524 | 73 | 249 | 4.0 | 10.0 | 0.00 | 0.00 | 0.00 | 37 | 1005.9 |
| 20260504200624 | 74 | 264 | 3.0 | 8.0 | 0.00 | 0.00 | 0.00 | 39 | 1006.0 |
| 20260504194824 | 73 | 270 | 4.0 | 10.0 | 0.00 | 0.00 | 0.00 | 38 | 1006.1 |
| 20260504193924 | 73 | 292 | 3.0 | 10.0 | 0.00 | 0.00 | 0.00 | 37 | 1006.1 |
| 20260504193025 | 73 | 275 | 4.0 | 8.0 | 0.00 | 0.00 | 0.00 | 36 | 1006.0 |
| 20260504192124 | 74 | 281 | 3.0 | 7.0 | 0.00 | 0.00 | 0.00 | 37 | 1006.1 |
| 20260504191224 | 74 | 243 | 2.0 | 7.0 | 0.00 | 0.00 | 0.00 | 38 | 1006.0 |
| 20260504190324 | 74 | 276 | 3.0 | 7.0 | 0.00 | 0.00 | 0.00 | 37 | 1006.0 |
| 20260504185424 | 73 | 267 | 3.0 | 8.0 | 0.00 | 0.00 | 0.00 | 36 | 1006.2 |
| 20260504184524 | 73 | 250 | 3.0 | 8.0 | 0.00 | 0.00 | 0.00 | 36 | 1006.2 |
| 20260504183624 | 72 | 281 | 3.0 | 8.0 | 0.00 | 0.00 | 0.00 | 39 | 1006.3 |
| 20260504182724 | 72 | 273 | 4.0 | 9.0 | 0.00 | 0.00 | 0.00 | 37 | 1006.4 |
| 20260504180024 | 72 | 281 | 4.0 | 8.0 | 0.00 | 0.00 | 0.00 | 37 | 1006.7 |
| 20260504175124 | 72 | 274 | 4.0 | 9.0 | 0.00 | 0.00 | 0.00 | 37 | 1006.9 |
| 20260504174224 | 72 | 265 | 3.0 | 7.0 | 0.00 | 0.00 | 0.00 | 39 | 1006.9 |
| 20260504172424 | 71 | 256 | 4.0 | 9.0 | 0.00 | 0.00 | 0.00 | 38 | 1006.8 |
| 20260504171523 | 70 | 267 | 4.0 | 8.0 | 0.00 | 0.00 | 0.00 | 39 | 1006.8 |
| 20260504170624 | 70 | 264 | 4.0 | 10.0 | 0.00 | 0.00 | 0.00 | 39 | 1007.0 |
| 20260504160324 | 68 | 276 | 5.0 | 10.0 | 0.00 | 0.00 | 0.00 | 41 | 1007.9 |
| 20260504140623 | 64 | 291 | 2.0 | 6.0 | 0.00 | 0.00 | 0.00 | 47 | 1009.0 |
| 20260504130323 | 59 | 249 | 2.0 | 6.0 | 0.00 | 0.00 | 0.00 | 54 | 1009.7 |
| 20260504110623 | 47 | 279 | 0.0 | 2.0 | 0.00 | 0.00 | 0.00 | 70 | 1009.9 |
| 20260504100323 | 45 | 0 | 0.0 | 0.0 | 0.00 | 0.00 | 0.00 | 71 | 1009.9 |
| 20260504081523 | 44 | 0 | 0.0 | 0.0 | 0.00 | 0.00 | 0.00 | 71 | 1009.5 |
| 20260504070323 | 42 | 0 | 0.0 | 0.0 | 0.00 | 0.00 | 0.00 | 77 | 1009.4 |
| 20260504050623 | 41 | 0 | 0.0 | 0.0 | 0.00 | 0.00 | 0.00 | 76 | 1009.5 |
| 20260504045723 | 41 | 0 | 0.0 | 0.0 | 0.00 | 0.00 | 0.00 | 78 | 1009.6 |
| 20260504043923 | 41 | 0 | 0.0 | 0.0 | 0.00 | 0.00 | 0.00 | 76 | 1009.5 |
| 20260504043023 | 42 | 0 | 0.0 | 0.0 | 0.00 | 0.00 | 0.00 | 74 | 1009.6 |
| 20260504042124 | 42 | 0 | 0.0 | 0.0 | 0.00 | 0.00 | 0.00 | 71 | 1009.5 |
| 20260504041223 | 42 | 0 | 0.0 | 0.0 | 0.00 | 0.00 | 0.00 | 71 | 1009.4 |
| 20260504035423 | 42 | 0 | 0.0 | 0.0 | 0.00 | 0.00 | 0.00 | 68 | 1009.2 |
| 20260504034523 | 42 | 0 | 0.0 | 0.0 | 0.00 | 0.00 | 0.00 | 68 | 1009.2 |
| 20260504033623 | 42 | 0 | 0.0 | 0.0 | 0.00 | 0.00 | 0.00 | 69 | 1009.1 |
| 20260504031823 | 40 | 322 | 0.0 | 3.0 | 0.00 | 0.00 | 0.00 | 76 | 1009.0 |
| 20260504030023 | 39 | 0 | 0.0 | 0.0 | 0.00 | 0.00 | 0.00 | 79 | 1008.9 |
| 20260504025123 | 39 | 0 | 0.0 | 0.0 | 0.00 | 0.00 | 0.00 | 79 | 1008.9 |
| 20260504024223 | 40 | 0 | 0.0 | 0.0 | 0.00 | 0.00 | 0.00 | 80 | 1008.9 |
| 20260504023323 | 40 | 0 | 0.0 | 0.0 | 0.00 | 0.00 | 0.00 | 78 | 1008.9 |
| 20260504022423 | 40 | 0 | 0.0 | 0.0 | 0.00 | 0.00 | 0.00 | 77 | 1008.9 |
| 20260504021523 | 41 | 0 | 0.0 | 0.0 | 0.00 | 0.00 | 0.00 | 74 | 1008.8 |
| 20260504020623 | 41 | 0 | 0.0 | 0.0 | 0.00 | 0.00 | 0.00 | 74 | 1008.7 |
| 20260504015723 | 42 | 0 | 0.0 | 0.0 | 0.00 | 0.00 | 0.00 | 72 | 1008.7 |
| 20260504014823 | 42 | 0 | 0.0 | 0.0 | 0.00 | 0.00 | 0.00 | 71 | 1008.7 |